Angel Fire, NM

1:39 AM MST on December 08, 2019 (GMT -0700)
Angel Fire

Weather History for KAXX - October, 2019

Change the Weather History Date:

Wednesday, October 2, 2019

  Actual Average (KSKX) Record (KSKX)
Temperature  
Mean Temperature 45 °F -  
Max Temperature 63 °F 67 °F 80 °F (2000)
Min Temperature 25 °F 34 °F 30 °F (1999)
Degree Days  
Heating Degree Days 20    
Moisture  
Dew Point 21 °F    
Average Humidity 34    
Maximum Humidity 62    
Minimum Humidity 13    
Precipitation  
Precipitation 0.00 in - - ()
Sea Level Pressure  
Sea Level Pressure 30.25 in    
Wind  
Wind Speed 12 mph (WSW)    
Max Wind Speed 25 mph    
Max Gust Speed 34 mph    
Visibility 10 miles    
Events      
Averages and records for this station are not official NWS values.
T = Trace of Precipitation, MM = Missing Value Source: NWS Daily Summary

Daily Weather History Graph

Daily Weather History Graph

Search for Another Location

Airport or City:

Astronomy

Oct. 02, 2019 Rise Set
Actual Time 6:56 AM MDT 6:43 PM MDT
Civil Twilight 6:31 AM MDT 7:09 PM MDT
Nautical Twilight 6:01 AM MDT 7:38 PM MDT
Astronomical Twilight 5:31 AM MDT 8:08 PM MDT
Moon 11:18 AM MDT (10/2) 9:46 PM MDT (10/2)
Length of Visible Light 12h 37m
Length of Day
11h 46m
Waxing Crescent, 21% of the Moon is Illuminated
Oct 2
Waxing Crescent
Oct 5
First Quarter
Oct 13
Full
Oct 21
Last Quarter
Oct 27
New

Hourly Weather History & Observations

Time (MDT) Temp. Windchill Dew Point Humidity Pressure Visibility Wind Dir Wind Speed Gust Speed Precip Events Conditions
12:15 AM 55.9 °F - 29.1 °F 36% 30.16 in 10.0 mi SW 9.2 mph - N/A   Scattered Clouds
12:35 AM 56.1 °F - 31.1 °F 39% 30.17 in 10.0 mi SSW 13.8 mph 18.4 mph N/A   Clear
12:55 AM 55.4 °F - 32.0 °F 41% 30.16 in 10.0 mi SSW 12.7 mph - N/A   Clear
1:15 AM 55.4 °F - 32.0 °F 41% 30.16 in 10.0 mi SW 11.5 mph - N/A   Scattered Clouds
1:35 AM 55.4 °F - 32.4 °F 42% 30.18 in 10.0 mi SSW 15.0 mph - N/A   Scattered Clouds
1:55 AM 55.6 °F - 32.0 °F 41% 30.18 in 10.0 mi SSW 13.8 mph 24.2 mph N/A   Clear
2:15 AM 55.4 °F - 31.5 °F 40% 30.18 in 10.0 mi SSW 16.1 mph 20.7 mph N/A   Clear
2:35 AM 54.7 °F - 30.7 °F 40% 30.17 in 10.0 mi SSW 13.8 mph 19.6 mph N/A   Clear
2:55 AM 53.6 °F - 30.2 °F 41% 30.18 in 10.0 mi SSW 12.7 mph - N/A   Clear
3:15 AM 53.8 °F - 28.9 °F 39% 30.18 in 10.0 mi SW 15.0 mph 25.3 mph N/A   Clear
3:35 AM 53.8 °F - 28.6 °F 38% 30.18 in 10.0 mi SW 12.7 mph 19.6 mph N/A   Clear
3:55 AM 53.2 °F - 28.8 °F 39% 30.18 in 10.0 mi SW 9.2 mph - N/A   Clear
4:15 AM 52.0 °F - 29.1 °F 41% 30.18 in 10.0 mi SW 8.1 mph - N/A   Clear
4:35 AM 52.2 °F - 28.2 °F 40% 30.19 in 10.0 mi SW 11.5 mph - N/A   Clear
4:55 AM 50.9 °F - 27.7 °F 41% 30.19 in 10.0 mi SW 11.5 mph 19.6 mph N/A   Clear
5:15 AM 50.2 °F - 27.3 °F 41% 30.19 in 10.0 mi SW 9.2 mph 18.4 mph N/A   Clear
5:35 AM 48.2 °F - 27.5 °F 45% 30.19 in 10.0 mi SW 9.2 mph - N/A   Clear
5:55 AM 47.7 °F - 27.5 °F 46% 30.20 in 10.0 mi West 8.1 mph - N/A   Clear
6:15 AM 46.2 °F 41.7 °F 28.9 °F 51% 30.21 in 10.0 mi WSW 9.2 mph 20.7 mph N/A   Clear
6:35 AM 47.1 °F - 24.1 °F 40% 30.21 in 10.0 mi WSW 12.7 mph 19.6 mph N/A   Clear
6:55 AM 45.9 °F 40.8 °F 23.4 °F 41% 30.22 in 10.0 mi WSW 10.4 mph 19.6 mph N/A   Clear
7:15 AM 45.3 °F 41.1 °F 23.0 °F 41% 30.22 in 10.0 mi West 8.1 mph 18.4 mph N/A   Clear
7:35 AM 45.1 °F 39.5 °F 23.9 °F 43% 30.22 in 10.0 mi WSW 11.5 mph - N/A   Clear
7:55 AM 47.3 °F - 24.6 °F 41% 30.23 in 10.0 mi WSW 12.7 mph 21.9 mph N/A   Clear
8:15 AM 48.2 °F - 25.3 °F 41% 30.23 in 10.0 mi West 9.2 mph 18.4 mph N/A   Clear
8:35 AM 49.1 °F - 25.3 °F 40% 30.24 in 10.0 mi West 20.7 mph 29.9 mph N/A   Clear
8:55 AM 50.0 °F - 25.7 °F 39% 30.24 in 10.0 mi West 15.0 mph 25.3 mph N/A   Clear
9:15 AM 50.7 °F - 25.7 °F 38% 30.25 in 10.0 mi West 20.7 mph 29.9 mph N/A   Clear
9:35 AM 52.0 °F - 25.0 °F 35% 30.26 in 10.0 mi West 20.7 mph 31.1 mph N/A   Clear
9:55 AM 52.5 °F - 24.8 °F 34% 30.27 in 10.0 mi WNW 13.8 mph 26.5 mph N/A   Clear
10:15 AM 53.2 °F - 25.5 °F 34% 30.27 in 10.0 mi West 13.8 mph 21.9 mph N/A   Clear
10:35 AM 55.0 °F - 25.3 °F 32% 30.27 in 10.0 mi West 19.6 mph 27.6 mph N/A   Clear
10:55 AM 55.4 °F - 23.4 °F 29% 30.27 in 10.0 mi West 23.0 mph 34.5 mph N/A   Clear
11:15 AM 56.8 °F - 22.5 °F 26% 30.27 in 10.0 mi West 16.1 mph 27.6 mph N/A   Clear
11:35 AM 57.6 °F - 21.7 °F 25% 30.27 in 10.0 mi West 23.0 mph 29.9 mph N/A   Clear
11:55 AM 58.1 °F - 21.4 °F 24% 30.28 in 10.0 mi West 24.2 mph 32.2 mph N/A   Clear
12:15 PM 58.3 °F - 20.3 °F 23% 30.27 in 10.0 mi WNW 25.3 mph 32.2 mph N/A   Clear
12:35 PM 58.5 °F - 19.6 °F 22% 30.27 in 10.0 mi West 24.2 mph 31.1 mph N/A   Clear
12:55 PM 59.2 °F - 19.4 °F 21% 30.26 in 10.0 mi West 18.4 mph 32.2 mph N/A   Clear
1:15 PM 59.9 °F - 19.4 °F 21% 30.26 in 10.0 mi West 17.3 mph 28.8 mph N/A   Clear
1:35 PM 60.4 °F - 19.4 °F 20% 30.26 in 10.0 mi West 17.3 mph 25.3 mph N/A   Clear
1:55 PM 61.2 °F - 18.5 °F 19% 30.25 in 10.0 mi West 20.7 mph 27.6 mph N/A   Clear
2:15 PM 61.9 °F - 17.4 °F 18% 30.25 in 10.0 mi WSW 23.0 mph 29.9 mph N/A   Clear
2:35 PM 61.7 °F - 17.4 °F 18% 30.24 in 10.0 mi West 15.0 mph 26.5 mph N/A   Clear
2:55 PM 62.6 °F - 14.4 °F 15% 30.25 in 10.0 mi West 16.1 mph 27.6 mph N/A   Clear
3:15 PM 63.0 °F - 14.2 °F 15% 30.25 in 10.0 mi West 13.8 mph 25.3 mph N/A   Clear
3:35 PM 63.7 °F - 14.4 °F 15% 30.25 in 10.0 mi WSW 13.8 mph 24.2 mph N/A   Clear
3:55 PM 63.7 °F - 13.3 °F 14% 30.25 in 10.0 mi WSW 13.8 mph 19.6 mph N/A   Clear
4:15 PM 63.5 °F - 12.9 °F 14% 30.25 in 10.0 mi West 16.1 mph 21.9 mph N/A   Clear
4:35 PM 63.5 °F - 12.4 °F 14% 30.25 in 10.0 mi West 10.4 mph - N/A   Clear
4:55 PM 62.4 °F - 12.0 °F 14% 30.25 in 10.0 mi West 16.1 mph 20.7 mph N/A   Clear
5:15 PM 63.0 °F - 11.1 °F 13% 30.25 in 10.0 mi West 8.1 mph 20.7 mph N/A   Clear
5:35 PM 62.4 °F - 13.5 °F 15% 30.26 in 10.0 mi West 6.9 mph 21.9 mph N/A   Clear
5:55 PM 61.0 °F - 11.8 °F 15% 30.27 in 10.0 mi WSW 8.1 mph - N/A   Clear
6:10 PM 59.4 °F - 13.8 °F 17% 30.27 in 10.0 mi WSW 6.9 mph - N/A   Clear
6:35 PM 55.2 °F - 12.2 °F 18% 30.28 in 10.0 mi WSW 6.9 mph - N/A   Clear
6:55 PM 49.3 °F - 12.9 °F 23% 30.28 in 10.0 mi Calm Calm - N/A   Clear
7:15 PM 44.1 °F - 15.4 °F 32% 30.29 in 10.0 mi Calm Calm - N/A   Clear
7:35 PM 38.7 °F 36.3 °F 16.7 °F 41% 30.30 in 10.0 mi West 3.5 mph - N/A   Clear
7:55 PM 42.4 °F 38.8 °F 14.0 °F 32% 30.31 in 10.0 mi SSE 5.8 mph - N/A   Clear
8:15 PM 40.8 °F - 13.8 °F 33% 30.31 in 10.0 mi Calm Calm - N/A   Clear
8:35 PM 38.1 °F - 13.6 °F 37% 30.33 in 10.0 mi Calm Calm - N/A   Clear
8:55 PM 34.5 °F - 14.7 °F 44% 30.33 in 10.0 mi Calm Calm - N/A   Clear
9:15 PM 31.8 °F - 14.2 °F 48% 30.34 in 10.0 mi Calm Calm - N/A   Clear
9:35 PM 31.1 °F - 15.8 °F 53% 30.34 in 10.0 mi Calm Calm - N/A   Clear
9:55 PM 33.8 °F - 14.0 °F 44% 30.35 in 10.0 mi Calm Calm - N/A   Clear
10:15 PM 29.8 °F - 14.5 °F 53% 30.35 in 10.0 mi Calm Calm - N/A   Clear
10:35 PM 28.9 °F 25.2 °F 14.7 °F 55% 30.35 in 10.0 mi WSW 3.5 mph - N/A   Clear
10:55 PM 29.5 °F - 14.7 °F 54% 30.35 in 10.0 mi Calm Calm - N/A   Clear
11:15 PM 27.5 °F - 14.0 °F 57% 30.35 in 10.0 mi Calm Calm - N/A   Clear
11:35 PM 27.0 °F - 14.2 °F 59% 30.36 in 10.0 mi Calm Calm - N/A   Clear
11:55 PM 25.3 °F - 14.0 °F 62% 30.36 in 10.0 mi Calm Calm - N/A   Clear